FW7198 Weather Reports


time (UTC)temp
C
wind
direction
speed
KPH
gust
KPH
rain 1hr
cm
rain 24hr
cm
rain mn
cm
humidity
%
barometer
mb
20260506013056 21 0 0.0 0.0 0.00 0.00 0.00 58 1014.1
20260506011550 21 0 0.0 0.0 0.00 0.00 0.00 56 1014.1
20260506010050 22 0 0.0 1.6 0.00 0.00 0.00 54 1014.2
20260506004546 23 0 0.0 0.0 0.00 0.00 0.00 52 1014.2
20260506003050 23 0 0.0 3.2 0.00 0.00 0.00 50 1014.2
20260506001556 24 0 0.0 4.8 0.00 0.00 0.00 48 1014.0
20260506000059 25 0 0.0 3.2 0.00 0.00 0.00 48 1014.2
20260505234550 25 178 0.0 4.8 0.00 0.00 0.00 46 1014.1
20260505233056 25 235 0.0 8.0 0.00 0.00 0.00 46 1014.2
20260505231554 26 175 0.0 12.9 0.00 0.00 0.00 44 1014.0
20260505230118 26 0 3.2 12.9 0.00 0.00 0.00 43 1013.9
20260505224554 26 115 1.6 12.9 0.00 0.00 0.00 43 1014.1
20260505223052 26 11 0.0 8.0 0.00 0.00 0.00 42 1013.8
20260505221559 27 274 3.2 17.7 0.00 0.00 0.00 40 1013.9
20260505220057 27 137 3.2 22.5 0.00 0.00 0.00 40 1014.0
20260505214554 27 325 3.2 17.7 0.00 0.00 0.00 40 1014.0
20260505213056 27 251 4.8 22.5 0.00 0.00 0.00 39 1014.3
20260505211601 27 137 4.8 22.5 0.00 0.00 0.00 40 1014.0
20260505210053 26 234 1.6 12.9 0.00 0.00 0.00 41 1014.2
20260505204552 26 263 3.2 12.9 0.00 0.00 0.00 41 1014.4
20260505203102 26 200 6.4 19.3 0.00 0.00 0.00 41 1014.6
20260505201553 27 123 3.2 14.5 0.00 0.00 0.00 40 1014.8
20260505200110 27 322 4.8 20.9 0.00 0.00 0.00 38 1014.9
20260505194551 27 114 3.2 27.4 0.00 0.00 0.00 39 1015.1
20260505193102 27 245 8.0 22.5 0.00 0.00 0.00 36 1015.5
20260505191604 27 126 6.4 22.5 0.00 0.00 0.00 37 1015.6
20260505190051 27 128 4.8 22.5 0.00 0.00 0.00 37 1015.6
20260505184552 27 243 1.6 11.3 0.00 0.00 0.00 39 1015.7
20260505183050 26 222 3.2 14.5 0.00 0.00 0.00 40 1015.9
20260505181556 27 248 3.2 16.1 0.00 0.00 0.00 39 1016.0
20260505180054 26 107 3.2 19.3 0.00 0.00 0.00 40 1016.3
20260505174557 26 281 4.8 17.7 0.00 0.00 0.00 38 1016.3
20260505173055 26 343 6.4 14.5 0.00 0.00 0.00 39 1016.4
20260505171550 26 81 4.8 19.3 0.00 0.00 0.00 41 1016.3
20260505170053 26 171 6.4 14.5 0.00 0.00 0.00 38 1016.7
20260505164555 26 171 1.6 19.3 0.00 0.00 0.00 44 1017.0
20260505163103 25 269 6.4 16.1 0.00 0.00 0.00 41 1017.0
20260505161551 25 0 3.2 11.3 0.00 0.00 0.00 48 1017.2
20260505153050 22 111 1.6 11.3 0.00 0.00 0.00 57 1017.3
20260505151554 21 306 0.0 9.7 0.00 0.00 0.00 64 1017.4
20260505150104 20 0 0.0 4.8 0.00 0.00 0.00 68 1017.3
20260505130106 11 0 0.0 0.0 0.00 0.00 0.00 91 1016.6
20260505124553 10 0 0.0 0.0 0.00 0.00 0.00 91 1016.7
20260505123050 10 0 0.0 0.0 0.00 0.00 0.00 91 1016.5
20260505121549 9 0 0.0 0.0 0.00 0.00 0.00 90 1016.7
20260505120057 8 0 0.0 0.0 0.00 0.00 0.00 90 1016.5
20260505114551 8 0 0.0 1.6 0.00 0.00 0.00 89 1016.3
20260505113053 8 0 0.0 0.0 0.00 0.00 0.00 88 1016.1
20260505111549 8 0 0.0 0.0 0.00 0.00 0.00 88 1016.0
20260505101552 9 0 0.0 0.0 0.00 0.00 0.00 86 1015.8
20260505100048 9 0 0.0 0.0 0.00 0.00 0.00 86 1015.6
20260505094606 9 0 0.0 0.0 0.00 0.00 0.00 86 1015.6
20260505093057 10 0 0.0 3.2 0.00 0.00 0.00 86 1015.6
20260505091604 10 0 0.0 0.0 0.00 0.00 0.00 86 1015.7
20260505090058 10 0 0.0 4.8 0.00 0.00 0.00 85 1016.0
20260505084557 10 0 0.0 11.3 0.00 0.00 0.00 85 1015.9
20260505083101 10 0 0.0 0.0 0.00 0.00 0.00 84 1015.7
20260505081600 10 0 0.0 3.2 0.00 0.00 0.00 83 1015.8
20260505080054 10 0 0.0 0.0 0.00 0.00 0.00 82 1015.8
20260505074551 11 0 0.0 0.0 0.00 0.00 0.00 81 1015.7
20260505073058 11 0 0.0 0.0 0.00 0.00 0.00 80 1015.7
20260505071555 11 0 0.0 0.0 0.00 0.00 0.00 79 1015.8
20260505070059 12 0 0.0 1.6 0.00 0.00 0.00 78 1015.8
20260505064553 12 0 0.0 0.0 0.00 0.00 0.00 76 1015.7
20260505063052 12 0 0.0 0.0 0.00 0.00 0.00 74 1015.7
20260505061555 13 0 0.0 1.6 0.00 0.00 0.00 74 1015.8
20260505060058 13 0 0.0 1.6 0.00 0.00 0.00 71 1015.9
20260505054556 13 0 0.0 1.6 0.00 0.00 0.00 69 1016.0
20260505053051 14 0 0.0 0.0 0.00 0.00 0.00 68 1016.1
20260505051554 15 0 0.0 0.0 0.00 0.00 0.00 66 1015.8
20260505041550 16 0 0.0 3.2 0.00 0.00 0.00 63 1016.1
20260505040059 16 0 0.0 4.8 0.00 0.00 0.00 62 1016.0
20260505034552 16 0 0.0 0.0 0.00 0.00 0.00 62 1016.1
20260505033051 16 0 0.0 0.0 0.00 0.00 0.00 62 1016.2
20260505031556 17 0 0.0 0.0 0.00 0.00 0.00 61 1016.1
20260505030058 17 0 0.0 0.0 0.00 0.00 0.00 60 1016.0
20260505024553 17 0 0.0 0.0 0.00 0.00 0.00 59 1015.9
20260505023048 17 0 0.0 0.0 0.00 0.00 0.00 58 1015.9
20260505021549 18 0 0.0 0.0 0.00 0.00 0.00 57 1015.7
20260505020052 18 0 0.0 0.0 0.00 0.00 0.00 55 1015.6
20260505014602 18 0 0.0 0.0 0.00 0.00 0.00 54 1015.6